Wind_Speed
28 25 23 24 22 20 18 16 15 13 11 10 10 12 14 16 17 18 19 19 20 19 19 18 17 16 15 14 13 14 14 13 13 12 12 12 13 13 13 12 13 14 13 12 10 11 12 12 12 14 14 14 13 13 12 12 12 13 15 17 18 19 19 18 17 16 15 15 15 15 15 16 15 16 16 16 16 17 17 17 16 14 15 17 17
32 27 25 24 23 20 18 17 15 14 12 11 11 12 13 15 17 17 18 19 19 19 18 18 17 15 14 14 13 13 13 13 12 12 12 13 13 13 12 11 12 13 13 13 11 11 13 13 11 11 13 14 13 13 13 12 13 14 16 16 17 18 18 17 17 15 15 14 15 15 15 14 14 15 15 15 15 16 16 17 16 14 16 18 17
32 27 25 24 23 21 19 17 16 14 13 12 11 11 12 14 16 17 17 17 17 18 17 16 15 14 14 13 13 13 12 12 12 12 12 12 13 13 12 11 10 10 11 12 11 11 12 13 12 11 12 13 14 13 13 13 14 15 16 16 16 17 17 17 17 16 16 15 14 15 15 14 14 14 14 15 15 15 16 16 17 16 17 19 19
32 27 24 24 22 21 19 18 17 15 14 12 11 11 12 13 15 16 17 17 17 17 16 15 15 14 13 13 12 12 12 12 12 12 12 12 12 12 12 11 10 9 9 8 9 10 11 13 13 12 11 13 14 14 13 14 15 16 15 15 16 16 16 16 16 15 16 16 15 15 15 14 14 14 14 15 15 15 15 16 17 17 19 20 19
31 28 24 24 23 21 20 18 17 16 14 13 12 11 12 13 14 16 16 17 17 16 15 14 14 13 13 12 12 12 12 12 12 13 13 12 12 12 11 11 10 9 8 7 7 9 10 11 13 13 12 12 13 14 14 15 16 15 15 14 15 15 15 15 15 15 16 16 16 16 15 14 14 14 14 13 13 14 15 15 17 17 19 20 20
30 27 24 25 23 21 20 19 18 17 15 13 12 11 12 13 14 15 16 16 16 15 14 13 13 13 12 12 12 11 11 11 12 13 13 13 12 12 11 10 10 9 8 8 7 7 8 9 12 13 12 12 13 14 15 16 16 15 14 13 14 13 14 14 14 14 15 15 16 16 15 15 15 14 13 12 13 14 15 15 16 17 18 20 20
29 26 25 25 23 22 20 20 19 17 16 14 13 12 12 13 13 14 14 14 14 14 13 12 12 12 12 12 11 11 11 11 12 13 13 13 12 13 12 11 9 8 8 9 8 7 6 7 10 12 12 12 12 15 16 17 17 15 13 13 12 12 13 12 13 14 13 14 15 15 15 14 14 13 12 12 13 14 15 15 16 16 18 19 20
28 26 25 25 23 22 21 21 20 18 16 15 13 13 13 13 13 13 13 13 13 12 12 11 11 11 11 11 11 11 11 11 11 12 12 12 12 13 12 11 10 9 9 8 7 6 5 5 7 10 11 11 12 14 16 17 17 15 13 12 12 11 11 11 12 13 13 13 14 14 14 14 13 13 12 12 12 12 13 15 15 16 17 18 19
28 26 26 24 22 22 21 21 20 18 17 15 14 14 14 14 14 13 13 13 12 12 11 11 10 10 11 11 11 10 10 10 11 11 11 11 12 12 11 11 11 10 9 8 7 6 5 4 4 8 11 11 12 15 16 16 16 14 13 12 12 11 10 10 10 11 12 12 13 13 13 13 12 12 11 11 11 11 12 13 14 15 16 17 19
28 26 26 24 22 21 20 20 20 18 17 15 14 14 14 14 14 14 14 14 13 12 11 11 10 10 10 10 9 10 10 10 10 11 10 10 10 10 10 10 11 10 8 8 7 6 5 3 2 7 11 11 13 15 17 17 16 15 13 12 12 11 10 9 9 10 11 11 11 11 11 11 11 11 10 10 10 10 11 12 13 14 15 16 18
27 26 26 23 21 21 20 20 21 20 18 16 14 14 14 14 14 15 15 14 13 12 12 11 10 10 9 9 9 10 10 10 10 10 10 9 9 9 9 10 10 9 7 6 6 5 5 4 1 5 10 11 12 14 17 18 17 16 13 12 12 12 11 9 9 9 10 10 10 10 10 10 10 10 10 9 9 9 10 11 12 13 14 15 16
27 26 25 23 21 21 21 20 21 20 20 18 16 14 14 14 14 15 15 14 14 13 12 11 11 10 9 9 10 11 11 11 10 10 10 9 9 9 9 9 8 8 7 6 6 5 4 3 2 4 7 9 10 12 16 18 16 16 14 13 13 12 11 10 8 7 8 9 8 8 8 9 9 9 10 9 8 8 9 9 11 12 13 14 15
28 26 24 23 22 22 21 21 21 21 20 19 17 16 15 14 14 14 14 14 14 13 12 12 11 10 10 11 11 12 12 11 11 10 10 10 10 10 9 9 8 8 7 6 6 6 4 3 3 4 6 8 10 11 15 18 16 14 14 13 13 12 11 10 9 7 7 7 7 7 7 8 8 8 9 9 8 7 8 9 10 11 12 13 13
28 26 24 24 23 23 21 21 21 21 21 19 17 16 16 15 14 14 14 14 13 13 12 12 11 11 12 12 12 12 12 12 11 10 10 10 10 9 9 8 8 7 7 6 6 6 4 3 4 4 6 8 9 10 11 15 15 13 13 12 11 12 10 9 9 7 6 6 6 7 7 7 7 8 8 9 8 7 9 9 9 10 11 12 12
27 25 23 23 22 22 21 22 22 22 21 19 18 16 15 15 14 14 14 14 13 13 13 12 12 13 13 12 12 12 12 11 11 10 10 9 9 8 8 7 7 7 7 7 6 5 4 4 4 4 4 6 8 8 9 10 13 13 12 11 10 10 10 9 8 7 6 5 5 6 6 6 6 7 7 8 8 7 8 8 8 9 10 11 12
25 24 22 21 20 20 19 20 21 21 20 19 18 16 15 14 14 14 14 14 13 13 13 13 13 13 12 12 12 11 11 11 10 10 9 9 8 8 7 7 7 6 6 6 6 5 5 5 5 5 5 6 7 8 9 8 10 12 11 11 10 9 9 9 8 7 6 5 5 5 6 6 5 6 7 7 7 6 6 7 7 8 9 10 11
24 23 22 20 20 19 18 17 17 17 18 18 17 17 16 15 15 14 14 14 13 14 14 14 14 13 13 12 12 11 11 11 10 10 9 9 8 8 7 7 6 6 6 7 7 6 5 6 6 7 7 7 9 9 10 9 8 10 10 11 11 9 9 8 8 7 6 5 4 4 4 4 5 5 5 6 6 5 3 5 6 6 8 9 10
24 23 21 19 20 19 18 17 17 16 17 17 18 18 17 15 15 15 15 15 14 14 15 15 15 14 13 12 12 11 11 10 10 9 9 8 7 7 6 6 7 7 7 8 7 6 5 4 6 8 9 9 10 11 11 11 9 8 9 10 11 10 9 8 7 7 6 5 4 4 3 3 3 4 4 4 5 5 3 3 5 6 7 8 9
23 22 19 18 19 19 19 18 18 18 17 18 18 18 17 16 15 15 15 16 15 15 16 16 15 14 13 12 11 11 10 10 10 9 8 8 6 6 6 6 7 7 7 7 7 6 4 3 4 7 9 10 10 12 13 12 10 8 8 9 11 10 9 8 7 7 6 5 4 3 2 2 2 3 3 3 3 4 3 2 3 5 6 6 7
22 22 19 19 20 19 20 19 19 18 18 18 18 19 19 18 16 16 16 16 17 17 16 16 15 13 12 11 10 10 10 10 10 9 8 7 6 5 6 6 6 6 6 6 6 6 5 3 3 5 8 10 10 12 13 13 11 9 8 9 10 10 9 8 8 8 7 5 4 3 2 1 1 1 2 3 3 3 3 3 2 3 4 5 6
23 22 20 19 19 18 19 18 18 18 19 20 20 19 19 18 18 18 17 17 17 17 17 16 15 13 11 10 10 10 9 9 8 8 8 7 6 6 5 5 5 5 6 6 5 5 5 4 3 4 7 9 10 11 13 13 12 9 8 9 10 10 9 9 9 8 7 5 4 3 2 2 2 0 1 2 2 2 2 2 1 2 4 4 5
25 24 20 19 18 18 18 17 18 18 19 19 19 19 19 19 19 19 18 17 16 17 17 15 14 12 11 10 10 9 8 8 7 7 6 6 6 6 5 5 4 4 4 5 5 5 4 3 3 4 6 8 9 10 13 13 12 9 7 9 10 10 9 9 9 8 6 5 4 3 3 3 2 1 1 2 2 2 2 2 1 2 3 4 4
26 25 21 19 18 18 18 17 17 18 19 18 19 19 19 19 19 18 18 16 16 16 16 14 13 11 11 10 9 8 8 7 7 6 5 5 5 5 4 3 3 3 3 4 4 4 4 4 3 4 5 7 8 9 12 13 12 9 7 9 11 11 10 10 9 7 6 5 4 3 3 3 3 2 2 3 3 3 3 3 2 1 3 5 5
27 25 22 21 19 19 18 17 17 18 19 19 19 19 18 18 17 17 17 16 15 15 15 13 11 11 10 10 9 8 7 7 5 4 4 5 4 4 3 2 2 4 4 3 3 4 4 4 4 4 5 6 7 8 11 12 11 9 7 9 11 11 10 9 8 7 5 4 4 3 3 4 4 2 3 3 3 3 3 2 2 2 2 4 5
27 25 23 22 20 20 19 18 17 17 18 18 17 17 17 17 17 16 16 15 15 14 13 11 10 10 10 9 9 8 7 6 4 3 3 4 3 3 3 2 2 3 4 3 3 4 4 5 5 5 5 6 6 7 10 12 11 10 8 9 12 12 10 9 8 7 5 4 4 3 4 4 3 2 2 3 4 4 4 3 2 2 2 3 4
27 25 23 22 20 19 19 19 18 18 17 17 17 17 17 17 17 16 15 15 13 13 12 11 11 10 9 9 9 8 7 5 4 3 3 3 3 2 2 2 2 3 3 3 3 3 4 6 6 6 6 5 5 6 10 11 10 9 9 10 12 11 9 8 7 7 6 4 4 3 4 4 3 2 1 2 3 3 4 3 3 3 1 2 3
28 26 24 23 21 19 18 19 19 17 16 16 16 16 16 16 16 15 15 13 11 11 11 11 11 10 10 9 9 8 7 6 5 4 3 2 2 2 2 2 2 3 3 3 3 3 4 5 6 6 6 5 4 6 10 11 10 9 9 10 11 10 9 8 7 6 6 4 4 3 4 4 4 3 2 0 2 3 3 4 3 2 1 1 1
27 26 25 23 21 19 20 19 18 17 16 16 15 15 14 15 15 13 12 12 10 10 10 10 10 11 10 10 9 9 8 8 7 6 4 3 2 2 2 3 3 3 3 3 3 3 3 5 6 7 6 5 4 6 9 10 9 9 9 9 9 9 8 7 6 6 5 4 4 3 3 4 4 5 4 2 1 2 3 4 3 1 1 1 1
26 26 25 24 20 19 19 18 17 17 15 15 15 14 13 13 12 10 9 10 9 9 10 10 10 10 10 10 9 9 9 9 8 7 6 4 3 2 2 3 4 3 4 3 3 4 4 5 7 8 7 5 4 6 9 9 8 8 8 8 7 7 7 6 5 5 5 4 4 3 3 3 4 5 5 4 3 2 2 3 3 1 1 2 2
26 26 25 24 21 18 18 17 17 16 16 15 14 13 11 10 9 8 9 9 9 9 10 10 9 9 10 10 10 10 11 10 9 8 7 6 5 4 4 4 5 5 5 4 4 4 5 6 8 9 8 6 5 6 8 9 8 7 7 7 6 5 5 5 5 5 4 4 4 3 3 3 4 4 5 6 5 4 3 2 2 2 1 2 2
27 26 24 24 21 19 19 18 17 17 16 14 11 11 9 9 9 8 9 9 9 9 10 10 9 10 11 11 11 11 11 10 10 8 8 7 6 6 6 6 6 6 6 5 5 5 5 6 9 10 9 6 6 7 9 9 8 7 7 7 6 5 4 5 5 5 4 4 4 3 4 4 5 5 5 6 6 5 4 3 2 0 1 1 1
27 26 24 23 21 20 19 18 18 17 15 13 10 11 10 10 9 9 10 9 9 9 10 10 10 11 11 11 12 13 12 12 11 10 8 7 7 8 8 7 7 6 6 6 6 6 6 6 9 11 11 8 8 9 10 10 9 8 7 7 7 6 6 6 6 6 5 4 3 2 2 3 4 5 5 6 7 6 5 5 3 3 3 2 2
26 24 22 22 21 20 19 19 18 16 14 12 12 11 10 9 9 10 10 10 9 9 9 10 10 11 10 12 15 14 14 13 12 12 9 7 9 10 9 7 6 6 7 8 7 7 7 6 8 11 12 10 9 10 11 11 11 10 8 7 7 7 6 6 7 6 4 4 4 3 2 1 2 3 4 5 6 6 6 5 4 4 4 4 4
24 22 21 21 20 20 19 19 17 15 14 13 13 11 10 10 9 9 10 9 8 8 9 10 10 10 11 14 16 14 13 11 12 12 8 8 10 9 8 7 6 6 7 8 8 7 8 7 7 9 11 11 10 11 12 12 12 12 11 10 9 8 7 6 7 6 4 3 3 4 3 2 1 2 3 4 5 5 5 5 5 4 4 5 5
22 20 20 20 20 20 19 18 16 15 14 14 12 11 10 10 9 9 9 8 7 7 9 10 10 11 11 12 12 12 12 10 14 13 8 9 11 9 9 9 8 8 7 8 8 7 7 8 8 8 9 11 11 11 12 12 12 12 12 10 9 9 7 7 7 7 5 4 4 4 4 5 3 3 2 2 3 3 4 4 4 4 3 4 5
20 19 19 18 19 19 18 17 17 16 15 14 12 11 11 10 9 9 9 8 8 7 8 10 10 11 11 10 8 10 11 10 12 9 7 9 10 9 10 9 10 9 8 8 8 7 7 8 9 8 8 9 9 10 11 12 12 12 11 11 10 9 9 9 9 8 7 6 6 6 6 7 6 5 4 3 2 2 2 2 2 2 2 2 3
18 18 17 18 19 18 18 18 18 17 16 14 13 12 11 10 9 9 8 8 7 6 6 8 10 12 11 9 7 8 8 7 7 3 6 8 9 10 10 9 10 11 9 8 7 7 7 8 9 9 8 8 8 9 10 10 9 10 11 10 9 10 11 11 10 9 9 8 8 8 7 9 9 8 7 6 5 4 3 2 2 1 1 1 1
18 18 17 18 20 19 19 19 19 18 16 14 13 12 11 10 9 8 7 6 5 5 6 7 9 11 11 10 8 6 6 5 4 2 5 7 9 10 9 9 9 11 10 9 8 8 7 7 8 9 9 8 8 8 9 8 7 7 7 7 6 7 9 11 10 10 10 9 9 9 9 10 10 9 8 7 7 6 5 4 4 4 3 3 1
18 19 19 20 20 19 19 20 20 19 17 15 14 12 11 9 8 7 6 4 3 3 3 4 6 7 7 7 7 6 5 4 4 3 5 7 8 10 9 9 10 10 10 9 9 9 8 8 8 8 8 9 9 9 8 7 7 7 7 6 4 4 6 8 8 8 8 8 8 9 11 12 10 9 9 9 9 9 7 7 6 6 7 6 5
19 20 21 21 19 19 21 21 20 19 17 16 14 12 10 9 7 6 4 3 1 2 2 2 2 3 4 4 5 5 4 4 4 4 4 5 7 9 10 10 10 10 10 10 10 9 9 9 7 7 7 8 9 9 8 7 6 7 7 6 4 4 4 4 4 4 4 4 4 5 7 8 7 7 8 8 9 9 9 10 9 9 10 9 8
21 22 22 20 19 20 21 21 20 19 16 15 13 10 8 6 4 4 4 3 3 3 2 1 2 1 3 4 4 4 4 4 4 3 2 4 5 7 8 9 10 10 11 11 10 10 10 9 8 8 7 8 9 9 8 6 5 7 7 6 5 5 4 4 4 3 2 3 3 2 3 3 4 4 5 5 7 8 8 9 9 11 13 13 11
23 22 21 19 19 20 20 20 19 17 15 13 11 8 6 4 3 3 3 3 4 3 2 1 2 2 1 2 3 2 2 2 3 2 0 1 2 4 5 7 8 9 10 10 10 10 10 9 9 9 8 8 8 9 9 8 7 7 7 6 5 5 4 5 4 3 3 3 2 2 2 3 3 3 3 4 4 5 5 6 7 8 11 13 13
23 22 21 19 19 20 20 19 17 15 13 13 10 7 6 4 3 2 3 3 3 3 4 3 3 4 4 3 1 1 1 1 1 1 2 2 1 1 3 5 6 7 8 9 10 10 10 10 10 9 8 7 9 10 10 10 9 8 8 7 5 4 4 4 4 3 3 2 2 2 2 2 3 2 2 2 2 3 4 5 6 6 7 9 11
24 23 22 21 20 20 20 17 16 14 13 13 11 8 6 4 3 2 1 1 1 3 4 4 4 4 4 4 2 1 1 1 1 2 2 3 3 2 2 4 5 6 7 8 9 9 9 9 9 8 7 7 9 11 11 11 10 9 9 9 6 5 4 3 3 2 2 2 2 2 3 2 1 0 1 2 2 4 5 5 6 7 7 8 9
26 25 23 22 20 19 19 17 15 14 13 13 11 9 7 5 4 3 1 1 1 3 4 5 5 4 3 4 3 2 1 1 2 2 2 3 4 5 4 4 5 5 5 5 6 6 6 7 7 6 5 6 9 11 11 11 10 9 10 10 8 7 7 6 5 4 3 4 4 5 4 3 2 0 2 3 4 5 5 6 6 7 7 8 9
26 25 23 22 19 18 18 17 16 14 14 13 11 10 8 6 5 2 1 2 3 4 4 5 5 4 4 5 5 4 3 2 1 0 1 2 2 3 4 4 3 3 4 4 4 5 5 6 6 4 5 6 8 10 10 9 9 9 11 11 9 8 8 9 9 8 6 5 5 5 4 2 1 1 2 3 4 4 4 5 6 6 7 7 8
25 23 22 21 20 18 18 19 17 15 14 14 13 12 10 8 6 3 3 3 4 4 4 5 5 5 5 5 6 6 5 4 3 3 3 2 2 2 2 3 3 3 3 3 3 3 4 5 5 4 4 6 7 8 8 8 9 11 12 11 9 8 8 11 12 11 9 8 5 4 3 1 1 1 1 2 3 3 4 5 5 6 7 7 8
23 23 22 22 20 19 19 19 18 16 15 14 14 13 11 9 7 5 3 1 2 3 5 6 6 6 5 5 5 6 6 5 4 4 4 4 4 3 3 5 5 4 3 2 3 4 4 5 6 6 5 6 6 7 8 9 11 12 12 10 8 8 10 11 12 11 11 12 9 7 5 4 3 4 4 4 4 4 4 5 5 6 7 8 8
23 23 22 21 20 19 19 19 19 18 16 15 15 14 11 9 8 7 4 1 1 4 6 8 8 6 4 3 4 5 6 5 4 4 4 4 4 3 2 4 5 4 4 3 3 4 5 6 7 7 8 8 8 8 10 11 11 10 9 8 8 10 11 11 11 10 11 12 12 11 10 8 6 8 7 6 6 5 5 5 5 6 6 7 8
24 23 22 20 19 19 19 19 20 19 17 15 15 14 12 10 8 7 4 1 3 6 8 10 9 7 5 4 3 5 6 5 4 4 5 5 4 3 3 4 5 5 4 4 3 3 4 5 7 8 9 10 10 10 11 12 11 10 10 9 10 11 11 11 11 11 11 11 11 12 11 8 8 9 8 6 7 7 6 6 6 6 7 8 8
24 24 22 20 19 19 19 19 19 18 17 15 15 14 13 11 9 7 4 1 3 6 8 10 9 7 6 5 5 6 6 5 5 5 5 5 4 4 4 6 6 5 4 3 2 3 5 7 7 9 10 11 11 11 11 12 12 12 12 11 11 11 10 11 11 11 11 12 13 14 12 9 9 9 8 7 7 7 6 6 6 6 7 7 7
Wind_Direction
172 175 172 170 174 175 172 170 169 166 159 149 140 138 143 147 148 148 150 153 155 158 159 160 159 160 159 155 150 146 145 142 140 137 134 133 135 138 142 148 143 141 143 146 162 174 171 166 155 146 138 137 132 125 120 109 104 102 97 93 89 85 82 80 78 76 77 80 78 78 78 77 78 80 81 84 86 87 85 82 77 73 71 68 67
170 173 171 171 174 175 174 171 170 165 158 149 142 137 140 144 146 146 150 153 156 158 159 159 158 158 155 152 147 145 143 140 137 135 133 133 136 138 141 147 148 146 144 149 167 172 170 171 164 155 145 138 137 133 123 112 112 108 103 99 94 89 86 81 79 76 78 83 82 80 80 79 78 79 82 85 85 87 85 82 79 75 72 66 66
167 170 171 170 172 175 174 172 169 165 159 152 145 139 138 140 142 143 146 149 151 153 154 154 153 151 148 146 143 140 137 134 131 130 132 134 138 139 141 142 142 144 141 146 157 156 162 170 170 167 153 143 142 136 123 116 119 115 109 104 98 93 89 84 81 78 81 85 85 84 81 80 77 75 79 86 88 88 86 83 79 74 70 63 63
167 168 169 169 171 174 174 174 170 166 162 156 149 142 141 139 138 139 141 143 145 148 149 148 146 144 142 141 138 133 128 126 125 127 131 135 140 139 136 134 132 135 139 144 147 145 153 165 171 173 163 152 145 136 126 123 124 120 114 109 102 97 93 89 86 82 81 84 85 84 81 81 78 72 70 76 83 86 86 84 79 73 68 61 60
168 166 166 167 171 174 175 176 173 170 165 160 153 146 145 142 138 137 140 142 144 144 143 142 141 139 137 135 131 128 125 124 124 125 127 130 135 136 132 128 125 123 128 137 140 145 151 159 170 174 170 161 147 139 130 128 129 123 119 113 107 102 98 95 91 85 82 83 85 85 82 80 77 73 68 66 71 80 84 83 81 74 68 62 58
168 166 167 169 171 173 175 178 176 173 168 162 154 149 147 144 140 137 139 141 141 141 139 138 137 136 134 132 131 129 128 126 125 126 127 128 129 130 129 127 125 118 118 123 124 133 146 157 167 171 171 166 150 141 136 134 132 127 124 116 110 105 102 100 95 89 85 85 85 86 84 81 78 75 72 66 65 73 81 82 81 78 72 65 59
168 166 169 173 173 172 175 178 177 174 169 162 153 147 148 147 144 141 141 141 140 138 136 137 135 133 133 131 131 131 131 130 128 128 131 131 130 130 128 125 122 115 112 111 111 112 123 146 167 170 171 171 155 144 142 141 138 133 130 121 115 109 104 103 99 94 89 86 84 84 83 82 80 77 73 70 67 68 75 78 78 78 75 70 65
168 168 170 174 173 172 175 177 176 173 168 161 154 149 150 150 149 146 144 143 140 138 137 137 136 135 134 134 134 135 137 136 134 132 133 135 133 132 128 125 121 117 113 105 100 101 107 128 161 171 172 173 158 149 149 147 145 141 137 129 121 115 109 106 102 97 90 84 81 79 78 77 76 76 73 71 71 70 74 77 78 78 77 74 70
170 171 171 172 173 173 175 177 177 174 170 164 159 154 153 153 153 152 148 146 143 141 141 142 142 142 140 139 140 142 143 141 139 136 134 134 133 133 131 128 125 124 122 113 103 91 92 108 147 167 169 173 162 154 154 151 150 149 145 138 129 124 117 112 103 97 90 84 80 76 72 71 71 72 71 69 70 73 75 78 80 80 80 77 73
172 172 173 173 173 175 175 177 178 176 173 169 164 159 157 156 156 156 154 153 150 148 147 148 149 149 147 147 150 152 150 147 144 141 137 134 132 133 134 133 129 127 124 117 111 92 83 85 139 166 167 174 170 162 158 154 156 155 153 147 138 133 126 119 106 95 91 86 81 78 74 70 68 67 67 69 68 71 74 77 81 81 80 78 76
173 172 173 174 174 175 176 178 179 178 176 172 168 164 162 160 160 159 159 159 159 157 155 155 157 159 160 161 163 162 159 154 149 145 142 140 138 135 135 136 133 131 130 123 118 107 94 83 127 176 173 179 178 168 160 159 161 159 160 155 147 142 135 126 110 96 90 86 80 78 79 74 70 69 68 72 71 70 74 76 78 80 80 79 79
174 172 173 173 174 177 177 178 180 181 180 177 174 171 168 165 163 162 161 163 164 164 162 163 166 168 170 169 165 164 161 157 153 149 148 146 143 140 141 141 139 139 140 137 126 117 113 108 129 186 188 188 186 172 157 159 167 163 162 160 151 149 140 129 116 101 91 85 79 77 80 79 75 72 67 70 74 74 76 76 77 79 79 79 79
173 172 173 173 174 177 178 178 182 183 180 179 180 178 173 170 166 166 165 166 169 169 169 169 170 170 168 164 159 159 158 156 154 153 152 149 146 147 150 147 146 145 142 142 134 127 133 136 144 178 196 197 191 179 159 157 166 164 163 162 155 149 140 130 120 109 96 84 79 80 83 82 77 73 64 61 64 69 77 79 80 81 79 78 79
175 173 174 175 176 178 179 179 182 182 179 179 183 182 175 172 171 171 170 171 173 173 173 171 170 167 162 159 157 157 155 153 152 153 152 148 146 147 150 146 141 140 142 145 142 141 151 162 163 173 191 198 192 185 169 160 160 163 166 165 156 145 139 129 118 112 104 92 81 81 84 82 77 78 68 56 54 59 72 81 84 85 84 82 79
178 175 174 175 176 176 177 178 181 180 180 182 183 185 178 174 175 175 176 175 175 174 172 170 166 162 159 158 158 156 153 150 148 150 148 144 142 141 142 141 141 147 151 150 147 154 166 178 182 178 186 196 194 186 183 173 161 161 167 165 155 142 136 127 118 113 107 99 84 79 81 82 76 77 70 56 51 51 65 77 85 89 89 85 80
181 176 173 175 175 176 176 176 180 179 179 183 183 187 185 180 177 178 179 177 176 173 170 167 164 160 160 160 159 157 152 148 147 148 144 140 137 137 141 142 147 154 148 141 143 160 175 182 187 188 188 192 198 195 193 193 173 161 163 161 153 145 135 126 123 117 111 104 92 83 80 82 79 72 67 59 50 45 58 75 82 90 92 90 85
182 179 176 178 179 180 178 173 177 176 175 180 183 189 190 185 179 179 180 179 177 172 170 167 164 162 162 163 162 159 153 150 150 149 144 138 136 136 140 142 145 142 129 129 139 154 172 185 191 194 197 196 198 203 201 203 194 167 158 156 152 150 140 131 125 118 114 109 100 92 84 82 85 78 69 63 54 46 59 82 86 92 94 93 92
183 182 180 180 177 176 177 172 174 177 176 177 182 189 192 187 182 181 179 179 176 172 172 169 166 164 164 166 165 161 157 155 153 151 145 139 138 139 139 141 144 139 132 135 142 147 157 181 198 206 207 205 201 203 206 208 208 181 157 154 152 151 147 138 125 118 117 112 104 96 86 80 92 93 82 71 60 53 65 96 93 95 98 98 96
183 182 180 179 177 176 176 176 175 177 179 176 178 187 190 188 184 182 180 177 174 174 174 171 168 166 167 166 163 161 159 158 157 153 149 146 144 142 141 138 139 139 140 145 152 155 161 179 199 212 215 215 209 204 206 208 212 195 163 155 154 152 150 142 127 118 115 109 105 98 85 71 85 103 98 86 71 61 65 87 99 100 99 102 100
183 182 180 178 178 179 178 179 178 178 178 174 178 186 188 185 180 181 181 176 175 175 174 172 170 169 169 166 160 157 156 158 157 155 155 156 152 146 145 139 135 135 135 146 158 166 175 194 203 210 217 221 218 210 206 207 212 201 171 160 156 154 152 143 130 118 109 103 98 87 75 49 34 103 115 104 96 80 68 61 91 112 105 107 107
182 182 182 179 178 179 179 179 180 180 179 180 183 184 184 182 178 180 181 177 176 175 174 173 172 172 170 164 160 156 153 156 154 154 157 157 153 151 152 148 142 136 133 140 157 170 179 199 214 210 214 219 222 216 207 207 211 204 176 161 158 156 152 143 131 117 106 95 84 67 52 29 359 53 155 137 133 127 106 79 82 133 128 119 117
183 183 184 182 178 177 177 178 178 179 181 182 182 180 182 182 180 180 178 177 176 173 174 174 172 171 170 166 161 157 154 153 149 150 154 151 154 153 153 157 158 152 144 144 155 172 184 197 223 225 216 217 221 216 207 206 208 204 179 159 161 160 152 143 132 118 105 88 75 55 36 19 351 301 226 201 177 165 149 135 121 148 151 140 131
185 184 182 180 178 176 176 178 178 180 182 181 180 181 182 181 180 178 175 174 176 175 174 173 171 170 170 167 162 162 158 151 148 152 153 152 158 157 152 154 168 174 171 163 158 168 188 200 226 240 226 221 221 216 205 201 203 203 181 160 162 161 153 145 135 119 103 82 67 50 30 10 349 313 257 239 209 187 175 167 163 173 161 155 148
186 184 182 180 179 176 176 179 180 183 183 182 181 179 179 179 178 176 173 175 176 176 175 172 172 170 169 167 167 170 166 159 158 157 156 158 164 162 147 130 158 179 183 181 169 164 179 203 226 235 226 222 222 214 200 194 198 199 180 164 164 161 157 150 138 121 103 80 62 46 29 9 352 322 274 253 228 206 196 186 199 213 160 162 162
187 184 184 183 180 177 176 179 184 187 186 184 180 176 176 179 179 178 177 178 178 176 175 174 174 174 171 172 176 179 177 174 173 166 161 163 165 160 154 142 153 178 188 195 196 177 179 199 214 219 213 212 216 210 194 187 193 193 181 172 167 164 163 156 142 124 107 89 68 46 33 17 359 336 284 253 237 225 215 204 221 224 158 160 169
189 185 185 183 181 179 176 179 187 191 189 184 180 177 178 179 181 184 184 182 181 178 177 177 179 180 180 183 187 189 191 188 189 187 174 167 164 162 171 175 168 180 196 206 214 203 190 191 196 200 199 197 205 202 186 180 185 186 178 173 169 169 169 161 149 130 114 100 80 56 43 34 23 20 346 247 244 241 234 220 233 242 183 153 167
192 188 188 184 180 179 177 182 188 189 186 183 182 182 182 183 184 188 188 184 183 185 184 183 184 187 190 194 196 198 202 204 206 205 195 185 174 169 180 189 189 189 198 209 209 207 200 191 185 183 184 186 199 197 182 175 177 178 169 169 171 170 167 162 151 132 116 98 83 64 51 50 54 57 66 199 239 241 241 232 236 263 245 210 181
193 190 188 183 180 179 179 183 186 186 183 183 187 188 189 189 189 189 186 187 191 195 193 191 192 195 198 200 202 205 212 217 220 220 217 214 191 171 179 193 204 204 202 205 201 195 194 195 180 173 178 182 197 197 183 174 175 174 164 164 168 164 161 160 151 136 117 93 79 68 55 53 64 66 69 93 163 204 219 226 230 271 269 254 291
195 191 187 183 181 180 181 183 183 186 185 185 190 193 192 190 193 192 189 197 201 201 200 201 203 205 207 208 210 214 220 225 229 229 227 229 220 201 192 194 202 214 215 206 200 188 175 191 184 174 180 185 195 195 184 178 174 170 164 160 161 160 158 159 156 145 121 92 78 70 63 51 62 65 61 75 87 115 175 212 225 247 256 251 277
198 193 190 187 183 180 182 183 183 187 188 186 188 190 189 191 198 201 204 212 211 209 209 212 214 216 218 219 220 221 224 230 233 235 234 232 233 228 215 203 201 207 217 212 206 193 172 185 188 181 186 191 195 189 183 183 177 172 171 166 162 164 164 165 168 160 131 100 88 78 69 54 56 62 57 63 71 77 97 160 215 242 267 262 264
199 197 194 191 186 182 182 184 186 188 189 186 185 190 194 199 206 211 215 220 222 222 223 224 225 225 228 229 231 231 231 234 236 238 240 236 237 240 227 209 204 204 211 213 207 201 179 179 187 188 192 193 195 188 182 184 184 182 181 176 174 183 189 185 188 184 162 128 110 91 77 68 61 62 61 59 61 63 71 86 111 88 3 319 277
200 198 195 193 189 187 186 187 190 190 188 186 189 197 201 207 215 219 224 228 230 233 234 236 236 235 239 242 240 238 237 236 236 234 235 239 234 233 230 213 209 208 207 208 203 200 188 177 183 191 193 192 192 187 182 183 187 190 193 191 186 192 205 205 201 192 174 156 149 145 99 81 72 67 69 68 62 59 58 63 72 69 59 51 58
197 198 193 192 192 191 191 192 194 191 188 190 197 203 207 213 220 225 231 235 235 237 242 246 247 246 248 252 250 243 239 240 244 238 226 231 233 231 229 214 212 216 211 209 205 199 194 185 182 190 193 194 192 187 186 187 190 196 203 206 198 197 206 206 200 194 187 178 174 187 194 111 85 71 70 77 74 68 59 51 51 57 56 53 52
193 195 190 190 191 191 194 196 195 192 192 196 201 205 209 215 219 227 233 238 239 239 247 253 258 259 253 253 255 254 252 250 253 249 228 221 230 233 228 217 213 213 211 210 210 205 198 197 192 190 194 196 196 195 196 197 198 202 207 210 208 210 214 212 210 220 234 219 198 210 217 208 153 105 83 82 83 82 73 58 49 45 40 40 39
191 190 188 188 189 190 195 196 195 194 196 198 199 202 208 214 216 225 233 238 241 240 253 263 267 268 264 261 262 262 260 251 247 243 223 218 224 221 214 212 213 209 207 210 211 207 201 204 204 199 199 201 205 209 211 212 210 208 207 209 209 213 219 222 227 239 254 249 240 247 233 219 201 168 152 122 102 98 91 83 70 55 38 25 24
190 187 185 185 188 192 195 195 195 196 197 196 195 199 206 210 213 220 227 231 235 237 251 266 273 272 272 276 274 268 262 250 249 237 201 211 218 211 205 205 213 213 213 215 209 201 200 206 211 213 212 208 209 216 220 222 221 213 209 212 213 216 221 225 228 237 253 252 249 259 245 226 215 201 194 183 173 168 145 133 123 97 73 34 17
188 183 180 183 189 193 193 193 194 195 195 192 192 197 201 205 208 210 213 218 224 230 241 257 272 277 277 278 268 270 278 272 270 245 187 205 213 209 205 204 214 217 218 222 218 209 204 206 213 220 220 212 208 215 220 221 225 220 213 215 219 222 224 226 228 235 244 243 243 252 246 233 224 215 213 217 218 216 222 224 221 220 158 78 66
187 181 179 186 190 190 190 190 191 192 190 188 190 194 197 201 200 198 201 207 216 230 243 251 262 272 280 284 277 281 301 302 289 233 190 204 214 214 210 209 217 221 223 227 232 231 222 214 217 221 223 220 215 218 216 210 218 226 220 217 220 223 223 227 232 236 240 242 244 245 242 241 236 228 226 234 240 237 240 249 258 269 257 243 222
187 185 188 193 192 188 188 188 189 188 185 186 189 192 196 198 192 188 188 194 209 223 234 246 256 268 280 290 294 301 308 297 284 249 203 203 215 218 218 218 220 227 230 230 232 234 232 230 228 224 223 224 225 227 220 211 221 230 230 231 222 214 218 226 235 239 242 247 249 248 248 250 249 247 243 243 248 248 249 254 260 274 273 265 258
188 190 195 197 192 186 186 187 188 184 182 185 187 190 193 191 186 180 172 165 149 152 176 199 229 269 286 298 305 310 310 295 285 275 235 212 217 222 224 224 222 228 235 233 231 233 234 236 233 224 222 223 227 230 221 214 225 222 220 231 220 199 206 217 235 242 240 243 248 251 252 252 249 248 249 249 254 253 252 256 257 261 266 268 267
191 194 199 197 190 186 186 187 187 182 181 184 183 183 180 170 163 159 156 138 115 119 140 165 174 238 274 285 297 308 325 331 328 309 243 217 218 227 231 230 227 230 236 238 238 241 241 239 232 225 225 226 230 233 221 208 213 208 204 211 207 198 200 205 220 232 232 240 243 236 238 245 240 240 246 248 256 258 255 257 258 256 257 258 263
197 198 200 196 188 186 189 188 186 183 182 184 181 175 166 149 124 120 132 130 118 100 64 68 91 75 11 295 294 306 327 346 360 19 278 228 222 237 244 240 235 233 235 239 243 245 247 246 240 234 232 226 225 225 216 202 203 210 210 206 199 200 204 203 206 212 219 226 230 236 245 254 254 248 242 234 245 261 261 259 263 263 259 254 257
204 203 201 198 192 190 193 192 188 187 187 186 180 175 171 165 151 121 117 127 119 72 44 38 48 54 47 38 12 342 332 321 341 359 359 358 346 288 265 251 243 238 239 244 246 247 249 248 245 241 232 218 211 211 211 210 212 219 215 199 186 193 207 213 211 209 210 200 196 219 234 251 264 254 240 235 242 268 275 276 281 284 278 269 265
207 207 203 202 199 196 197 196 193 195 195 189 180 178 180 179 184 182 156 139 115 55 37 22 23 41 46 45 51 38 336 277 285 297 314 326 320 305 279 255 246 241 241 242 242 242 241 239 240 234 219 207 203 201 207 216 219 217 205 190 176 181 195 197 186 167 151 131 130 137 130 126 101 235 279 302 301 297 297 296 297 299 301 301 295
206 206 205 206 204 201 201 200 199 201 202 194 182 183 189 192 203 209 208 145 96 63 41 20 12 22 38 46 61 89 140 232 252 264 276 283 279 270 257 245 240 235 230 227 227 231 231 233 235 224 203 200 202 198 198 208 218 216 207 194 177 177 188 178 153 136 130 117 112 114 116 125 132 173 297 309 311 309 304 300 300 300 306 310 311
206 206 208 209 208 207 206 203 204 207 206 197 187 190 197 202 212 204 105 82 74 65 44 21 8 11 25 37 52 75 99 127 176 242 329 294 267 249 236 223 219 218 214 216 220 225 228 228 225 214 195 197 205 202 197 202 211 209 204 199 198 203 200 180 159 146 134 117 112 116 116 128 169 243 284 302 311 316 312 310 311 309 311 315 318
205 207 209 209 210 211 209 206 207 211 209 201 193 196 201 205 207 179 128 92 67 55 32 13 5 10 23 36 46 57 74 89 86 60 50 58 83 100 120 124 128 140 162 184 190 192 199 200 196 195 194 198 204 203 195 191 188 189 191 193 202 205 194 183 171 155 137 120 116 120 115 118 149 168 354 3 356 348 340 331 329 329 327 329 332
205 207 208 210 211 211 211 209 210 214 214 208 203 202 204 207 205 189 169 128 75 40 14 5 360 2 16 38 49 46 53 68 64 52 55 70 86 87 96 110 120 127 122 119 129 139 145 150 158 167 173 175 182 183 177 171 170 178 184 183 180 171 171 180 177 164 147 134 128 123 117 121 122 100 73 52 32 13 5 354 346 345 342 344 348
204 206 208 212 212 212 214 213 214 217 219 217 213 210 209 211 209 198 187 165 87 37 14 1 354 349 357 29 51 39 38 52 50 55 76 91 97 97 112 125 129 133 128 124 123 121 122 124 132 143 147 149 155 160 160 160 165 176 178 169 160 156 159 167 172 172 162 144 137 134 125 121 111 89 72 62 53 43 39 34 25 19 11 10 11
207 208 211 214 215 216 218 217 217 220 224 225 222 219 217 215 211 205 195 140 47 32 15 2 352 341 343 8 33 27 30 43 46 58 86 100 98 95 122 139 134 135 142 143 134 123 122 124 128 134 136 140 144 147 151 157 162 164 162 158 158 161 166 172 176 181 174 157 148 146 136 128 118 101 90 84 78 73 65 57 52 45 32 25 21
211 213 214 215 216 217 220 221 223 226 230 231 229 228 225 217 210 207 199 69 41 37 19 5 355 342 341 356 7 15 25 41 51 60 83 99 94 86 117 139 142 146 153 152 141 143 144 139 135 135 133 135 137 140 146 151 153 153 153 156 161 165 169 173 173 170 167 159 152 148 142 134 128 121 117 109 98 90 82 72 61 53 40 28 20
Height
1519 1521 1522 1524 1526 1527 1529 1530 1531 1532 1533 1534 1534 1535 1537 1538 1539 1539 1540 1540 1541 1542 1542 1543 1544 1545 1545 1546 1546 1546 1547 1547 1548 1548 1549 1550 1550 1551 1552 1552 1553 1553 1554 1555 1555 1555 1556 1557 1557 1557 1557 1558 1558 1559 1559 1559 1560 1560 1559 1559 1559 1559 1559 1560 1559 1559 1559 1559 1559 1558 1558 1558 1557 1557 1556 1556 1555 1554 1554 1553 1553 1552 1551 1550 1549
1517 1520 1522 1524 1526 1528 1529 1531 1532 1533 1534 1535 1535 1536 1537 1539 1540 1540 1541 1542 1542 1543 1543 1544 1545 1545 1546 1546 1547 1547 1547 1548 1548 1549 1549 1550 1551 1551 1552 1553 1553 1554 1554 1555 1555 1556 1556 1557 1558 1558 1558 1558 1559 1559 1560 1560 1561 1561 1561 1560 1560 1560 1561 1561 1561 1561 1561 1560 1560 1560 1559 1559 1559 1558 1558 1557 1557 1556 1555 1555 1554 1554 1552 1551 1551
1516 1520 1522 1524 1526 1528 1529 1531 1532 1534 1535 1535 1536 1536 1538 1539 1540 1541 1542 1543 1543 1544 1544 1545 1546 1546 1547 1547 1548 1548 1548 1548 1549 1550 1550 1551 1551 1552 1552 1553 1553 1554 1554 1555 1555 1556 1556 1557 1558 1558 1558 1559 1559 1560 1561 1561 1561 1562 1562 1562 1562 1562 1562 1562 1562 1562 1562 1561 1561 1561 1561 1560 1560 1560 1559 1558 1558 1557 1557 1556 1556 1555 1554 1553 1552
1517 1520 1523 1525 1527 1529 1530 1532 1533 1534 1535 1536 1537 1537 1538 1539 1541 1542 1543 1543 1544 1545 1545 1546 1547 1547 1548 1548 1549 1549 1549 1549 1550 1550 1551 1552 1552 1553 1553 1554 1554 1554 1555 1555 1556 1556 1556 1557 1558 1558 1559 1559 1560 1561 1561 1562 1562 1563 1563 1563 1563 1563 1563 1563 1563 1563 1563 1562 1562 1562 1562 1562 1561 1561 1560 1560 1559 1559 1558 1558 1557 1556 1555 1554 1553
1518 1521 1524 1525 1527 1529 1531 1532 1533 1534 1535 1536 1537 1538 1539 1540 1541 1542 1544 1544 1545 1545 1546 1547 1547 1548 1549 1549 1550 1550 1550 1551 1551 1551 1552 1552 1553 1554 1554 1554 1555 1555 1555 1556 1556 1557 1557 1557 1558 1558 1559 1559 1560 1561 1562 1563 1563 1564 1564 1564 1564 1564 1564 1564 1564 1564 1564 1564 1563 1563 1563 1563 1562 1562 1562 1561 1560 1560 1559 1559 1558 1557 1557 1556 1555
1520 1522 1524 1525 1527 1529 1531 1532 1533 1534 1535 1536 1537 1539 1540 1541 1542 1543 1545 1545 1546 1546 1547 1547 1548 1549 1549 1550 1551 1551 1551 1552 1552 1552 1553 1553 1554 1554 1555 1555 1556 1556 1556 1557 1557 1557 1558 1558 1558 1558 1559 1560 1561 1562 1563 1563 1564 1564 1565 1565 1565 1565 1565 1565 1565 1565 1565 1565 1564 1564 1564 1564 1564 1563 1563 1563 1562 1561 1561 1560 1559 1559 1558 1557 1557
1520 1522 1524 1525 1527 1529 1531 1532 1533 1534 1535 1536 1537 1539 1541 1542 1543 1544 1545 1546 1547 1547 1548 1548 1549 1549 1550 1551 1551 1552 1552 1552 1553 1553 1554 1554 1554 1554 1555 1556 1556 1557 1557 1557 1558 1558 1558 1559 1559 1559 1559 1560 1561 1562 1563 1564 1565 1565 1566 1566 1566 1566 1566 1566 1566 1566 1566 1566 1566 1565 1565 1565 1565 1565 1564 1564 1563 1562 1562 1561 1561 1560 1560 1559 1558
1521 1522 1524 1526 1527 1529 1531 1532 1533 1534 1535 1536 1537 1539 1541 1542 1543 1545 1546 1547 1547 1547 1548 1549 1550 1550 1551 1552 1552 1553 1553 1553 1554 1554 1554 1555 1555 1555 1556 1556 1557 1557 1557 1558 1558 1559 1559 1559 1559 1560 1560 1561 1562 1562 1563 1564 1565 1566 1566 1566 1567 1567 1567 1567 1567 1567 1567 1567 1567 1567 1566 1566 1566 1566 1565 1565 1564 1564 1563 1563 1562 1562 1561 1561 1560
1521 1522 1524 1526 1527 1529 1531 1533 1534 1535 1536 1537 1537 1539 1540 1541 1543 1544 1546 1547 1547 1548 1548 1549 1550 1551 1552 1553 1553 1553 1554 1554 1554 1555 1555 1556 1556 1556 1556 1557 1557 1557 1558 1558 1559 1559 1560 1560 1560 1560 1561 1561 1562 1563 1564 1565 1565 1566 1567 1567 1567 1568 1568 1567 1567 1567 1568 1567 1567 1568 1567 1567 1567 1567 1567 1566 1566 1565 1565 1564 1564 1563 1563 1562 1562
1521 1522 1524 1526 1528 1529 1531 1533 1534 1535 1537 1538 1538 1539 1540 1541 1542 1544 1545 1547 1547 1548 1549 1550 1551 1552 1553 1553 1554 1554 1554 1555 1555 1556 1556 1557 1557 1557 1557 1557 1558 1558 1558 1559 1559 1560 1560 1560 1560 1561 1561 1561 1562 1563 1564 1565 1566 1566 1567 1567 1568 1568 1568 1568 1568 1568 1568 1568 1568 1568 1568 1568 1568 1568 1568 1567 1567 1567 1566 1566 1565 1565 1564 1564 1563
1521 1523 1525 1526 1528 1529 1530 1532 1533 1535 1537 1538 1540 1541 1541 1542 1543 1544 1545 1547 1548 1549 1549 1550 1551 1552 1553 1553 1554 1554 1555 1555 1556 1556 1557 1557 1557 1558 1558 1558 1558 1559 1559 1559 1560 1560 1560 1561 1561 1561 1561 1561 1562 1563 1565 1565 1565 1566 1567 1568 1568 1569 1569 1569 1569 1569 1569 1569 1569 1569 1569 1569 1569 1569 1568 1568 1568 1568 1568 1567 1567 1566 1565 1565 1565
1521 1523 1525 1526 1527 1529 1530 1532 1533 1534 1535 1538 1540 1541 1542 1543 1543 1544 1545 1546 1548 1549 1549 1550 1551 1552 1553 1554 1554 1554 1555 1555 1556 1557 1557 1557 1558 1558 1559 1559 1559 1559 1559 1559 1560 1560 1561 1561 1561 1562 1562 1562 1562 1563 1565 1566 1566 1566 1567 1568 1568 1569 1570 1570 1570 1570 1570 1570 1570 1570 1570 1570 1570 1569 1569 1569 1569 1569 1569 1568 1568 1567 1567 1566 1566
1521 1523 1524 1526 1527 1528 1530 1532 1533 1534 1535 1537 1539 1540 1541 1543 1544 1544 1546 1547 1548 1548 1549 1550 1551 1552 1553 1554 1554 1555 1555 1556 1556 1557 1557 1558 1558 1559 1559 1559 1560 1560 1560 1560 1560 1560 1561 1561 1561 1562 1562 1563 1563 1563 1565 1566 1566 1567 1567 1568 1569 1570 1570 1571 1571 1571 1570 1570 1570 1570 1570 1570 1570 1570 1570 1570 1570 1569 1569 1569 1569 1569 1568 1568 1567
1520 1522 1524 1525 1527 1528 1530 1531 1533 1535 1537 1538 1540 1541 1540 1542 1544 1545 1546 1547 1548 1548 1549 1550 1551 1552 1553 1554 1555 1555 1555 1556 1556 1557 1557 1558 1558 1559 1559 1560 1560 1560 1560 1560 1560 1560 1560 1561 1561 1562 1562 1563 1563 1564 1565 1566 1567 1567 1568 1568 1569 1570 1571 1571 1571 1571 1571 1571 1571 1571 1571 1571 1571 1571 1571 1571 1571 1570 1570 1570 1570 1570 1570 1569 1569
1521 1523 1525 1526 1527 1529 1531 1532 1533 1535 1537 1539 1541 1542 1541 1541 1543 1544 1546 1547 1548 1548 1549 1549 1551 1552 1553 1554 1555 1555 1556 1556 1557 1557 1558 1558 1559 1559 1560 1560 1561 1561 1561 1561 1560 1560 1560 1561 1561 1562 1562 1563 1564 1564 1565 1566 1567 1568 1568 1569 1570 1571 1571 1572 1572 1572 1572 1571 1571 1571 1571 1572 1572 1572 1572 1572 1571 1571 1571 1571 1571 1571 1570 1570 1570
1522 1524 1526 1527 1529 1531 1532 1533 1534 1535 1537 1539 1541 1543 1543 1542 1543 1544 1546 1547 1547 1548 1548 1550 1551 1552 1553 1554 1555 1556 1556 1557 1557 1558 1558 1559 1559 1560 1560 1561 1561 1561 1561 1561 1561 1561 1561 1561 1561 1562 1562 1563 1564 1564 1565 1566 1567 1568 1568 1569 1570 1571 1572 1572 1573 1572 1572 1572 1572 1572 1572 1572 1572 1572 1572 1572 1572 1572 1572 1572 1572 1572 1571 1571 1571
1522 1524 1525 1527 1530 1532 1533 1534 1535 1536 1537 1538 1540 1543 1543 1543 1543 1544 1546 1547 1547 1548 1549 1550 1551 1552 1553 1555 1556 1556 1557 1557 1558 1558 1559 1559 1560 1560 1560 1561 1561 1561 1562 1562 1562 1561 1561 1561 1562 1562 1562 1563 1563 1564 1565 1566 1567 1568 1568 1569 1570 1571 1572 1572 1573 1573 1573 1572 1572 1572 1572 1572 1572 1573 1573 1573 1573 1572 1572 1572 1573 1573 1572 1572 1572
1522 1524 1526 1527 1530 1531 1533 1534 1535 1536 1536 1537 1539 1542 1544 1544 1543 1544 1545 1546 1548 1548 1549 1550 1551 1552 1554 1555 1556 1556 1557 1557 1558 1559 1559 1559 1560 1560 1560 1561 1561 1561 1562 1562 1562 1562 1562 1562 1562 1562 1562 1562 1563 1564 1565 1566 1566 1568 1569 1569 1570 1571 1572 1573 1573 1573 1573 1573 1573 1572 1572 1572 1573 1573 1573 1573 1573 1573 1573 1573 1573 1573 1573 1573 1573
1522 1524 1526 1528 1530 1531 1533 1534 1534 1536 1537 1537 1538 1542 1544 1544 1544 1544 1545 1547 1548 1549 1549 1550 1552 1553 1554 1555 1556 1557 1557 1558 1559 1559 1559 1560 1560 1560 1561 1561 1561 1562 1562 1562 1563 1562 1562 1562 1562 1563 1563 1563 1563 1564 1565 1566 1566 1568 1569 1569 1570 1571 1572 1573 1573 1573 1573 1573 1573 1573 1573 1573 1573 1573 1573 1573 1574 1574 1573 1573 1574 1574 1574 1574 1574
1523 1524 1526 1528 1529 1531 1532 1533 1534 1536 1537 1537 1539 1541 1543 1543 1543 1544 1546 1547 1548 1549 1550 1551 1552 1553 1555 1555 1556 1557 1558 1558 1559 1559 1559 1560 1560 1560 1561 1561 1561 1561 1562 1562 1563 1563 1563 1562 1563 1563 1563 1563 1563 1564 1565 1566 1566 1567 1569 1569 1570 1572 1573 1573 1574 1574 1574 1574 1573 1573 1573 1573 1573 1573 1573 1573 1574 1574 1574 1574 1574 1574 1574 1574 1575
1522 1524 1526 1528 1529 1531 1532 1533 1534 1536 1537 1538 1539 1541 1542 1543 1543 1544 1546 1548 1548 1549 1550 1551 1553 1554 1555 1556 1556 1557 1558 1559 1559 1560 1560 1560 1560 1561 1561 1561 1561 1561 1562 1562 1563 1563 1563 1563 1563 1563 1563 1563 1563 1564 1565 1566 1567 1567 1569 1570 1571 1572 1573 1573 1574 1574 1574 1574 1574 1574 1573 1573 1573 1573 1573 1574 1574 1574 1574 1574 1574 1574 1574 1575 1575
1522 1524 1526 1528 1530 1531 1533 1534 1535 1536 1537 1538 1539 1541 1542 1543 1544 1545 1547 1548 1549 1549 1550 1552 1553 1554 1555 1556 1557 1557 1558 1559 1559 1560 1560 1560 1561 1561 1561 1561 1561 1561 1561 1562 1562 1563 1563 1563 1563 1563 1563 1563 1563 1564 1565 1566 1567 1568 1569 1570 1571 1572 1573 1574 1574 1574 1574 1574 1574 1574 1574 1573 1573 1573 1573 1574 1574 1574 1574 1574 1574 1574 1574 1575 1575
1521 1523 1526 1528 1529 1531 1533 1534 1535 1536 1537 1538 1539 1541 1542 1544 1545 1546 1547 1549 1549 1550 1551 1552 1553 1554 1555 1556 1557 1557 1558 1558 1559 1559 1560 1561 1561 1561 1561 1561 1560 1561 1561 1561 1562 1563 1563 1563 1563 1563 1563 1563 1564 1565 1566 1566 1567 1568 1569 1570 1571 1572 1573 1573 1574 1574 1575 1575 1574 1574 1574 1574 1573 1573 1573 1573 1574 1574 1574 1574 1574 1574 1574 1575 1575
1521 1523 1525 1527 1528 1530 1533 1534 1535 1536 1537 1538 1539 1541 1543 1545 1546 1547 1548 1549 1549 1550 1551 1552 1553 1554 1555 1556 1556 1557 1557 1558 1558 1559 1560 1560 1561 1561 1560 1561 1560 1560 1560 1561 1562 1563 1563 1563 1563 1563 1563 1563 1564 1565 1566 1567 1567 1568 1569 1570 1571 1572 1573 1573 1574 1575 1575 1575 1575 1574 1574 1574 1574 1573 1574 1573 1574 1574 1574 1574 1574 1574 1575 1575 1575
1520 1523 1524 1526 1529 1530 1532 1533 1535 1537 1538 1539 1540 1541 1543 1544 1546 1547 1548 1549 1550 1550 1551 1552 1553 1554 1555 1555 1556 1556 1557 1557 1558 1559 1559 1560 1560 1560 1560 1560 1560 1560 1560 1561 1561 1562 1563 1563 1563 1563 1563 1563 1564 1565 1566 1567 1568 1569 1570 1571 1571 1572 1573 1573 1574 1575 1575 1575 1575 1574 1574 1574 1574 1573 1574 1574 1574 1574 1574 1575 1575 1575 1575 1575 1576
1520 1522 1525 1527 1529 1531 1531 1533 1535 1537 1538 1539 1540 1541 1543 1544 1545 1547 1548 1549 1550 1551 1551 1552 1553 1554 1555 1555 1556 1556 1557 1557 1558 1558 1559 1559 1560 1560 1560 1560 1560 1560 1560 1560 1561 1562 1562 1563 1563 1563 1563 1564 1565 1566 1567 1567 1568 1569 1570 1571 1572 1572 1573 1573 1574 1575 1575 1575 1575 1574 1574 1574 1574 1573 1574 1574 1574 1574 1575 1575 1575 1575 1575 1576 1576
1519 1522 1525 1526 1528 1530 1531 1533 1535 1537 1538 1539 1541 1541 1542 1544 1545 1547 1548 1549 1550 1551 1552 1552 1553 1554 1554 1555 1555 1556 1556 1557 1557 1558 1558 1558 1559 1559 1559 1560 1560 1560 1560 1560 1560 1561 1562 1563 1563 1564 1564 1565 1565 1566 1567 1568 1569 1570 1571 1571 1572 1573 1573 1574 1574 1575 1575 1575 1575 1574 1574 1574 1574 1573 1574 1574 1574 1574 1574 1575 1575 1575 1576 1576 1576
1519 1522 1524 1526 1528 1529 1531 1533 1535 1536 1538 1540 1541 1542 1543 1544 1546 1547 1548 1549 1550 1551 1551 1552 1553 1554 1554 1554 1555 1555 1556 1556 1556 1557 1557 1558 1558 1558 1558 1559 1559 1559 1559 1560 1560 1561 1562 1563 1564 1564 1565 1565 1566 1567 1567 1568 1569 1570 1571 1572 1573 1573 1574 1574 1575 1575 1575 1575 1575 1575 1575 1574 1574 1574 1574 1574 1574 1574 1574 1574 1575 1575 1575 1576 1576
1519 1521 1524 1526 1528 1529 1531 1532 1535 1536 1538 1539 1540 1542 1543 1544 1546 1547 1548 1549 1550 1550 1551 1552 1553 1553 1554 1554 1554 1554 1555 1555 1556 1556 1556 1557 1557 1557 1558 1558 1558 1558 1559 1559 1560 1561 1562 1563 1563 1564 1565 1566 1566 1567 1568 1569 1570 1571 1571 1572 1573 1574 1574 1575 1575 1575 1575 1575 1575 1575 1575 1575 1574 1574 1574 1574 1573 1574 1574 1574 1574 1575 1575 1575 1576
1519 1521 1524 1526 1528 1529 1531 1533 1535 1536 1537 1539 1540 1541 1543 1544 1545 1547 1548 1549 1549 1550 1551 1552 1552 1553 1553 1553 1553 1554 1554 1554 1555 1556 1556 1556 1557 1557 1557 1557 1557 1558 1558 1559 1559 1560 1562 1562 1563 1564 1565 1566 1566 1567 1568 1569 1570 1571 1572 1573 1573 1574 1575 1575 1575 1575 1575 1575 1575 1575 1575 1575 1575 1575 1574 1574 1574 1574 1574 1574 1574 1574 1575 1575 1575
1519 1521 1524 1526 1528 1530 1531 1533 1534 1536 1537 1538 1540 1541 1543 1544 1545 1547 1547 1548 1549 1550 1550 1551 1552 1552 1552 1553 1552 1552 1553 1553 1554 1555 1556 1556 1557 1557 1556 1556 1556 1557 1557 1558 1559 1560 1561 1561 1562 1563 1564 1565 1566 1567 1568 1569 1570 1571 1572 1573 1574 1574 1575 1575 1575 1575 1575 1576 1576 1576 1575 1575 1575 1575 1575 1575 1574 1574 1574 1574 1574 1574 1574 1574 1575
1519 1521 1524 1526 1528 1530 1531 1533 1534 1535 1536 1538 1540 1541 1543 1544 1545 1546 1547 1548 1549 1549 1550 1550 1551 1551 1552 1552 1551 1551 1551 1551 1552 1553 1555 1556 1556 1556 1556 1556 1556 1556 1557 1557 1558 1559 1560 1561 1562 1563 1564 1565 1565 1566 1568 1569 1570 1571 1572 1573 1574 1574 1575 1575 1575 1575 1575 1575 1576 1576 1576 1575 1575 1575 1575 1575 1575 1575 1575 1575 1575 1574 1574 1574 1575
1519 1521 1524 1526 1528 1530 1531 1532 1533 1535 1536 1538 1540 1541 1543 1544 1544 1545 1546 1547 1548 1549 1549 1549 1549 1550 1551 1550 1548 1549 1549 1549 1551 1552 1554 1556 1556 1555 1556 1556 1556 1556 1557 1557 1558 1558 1559 1561 1562 1563 1564 1564 1565 1566 1567 1568 1569 1570 1571 1572 1573 1574 1575 1575 1575 1575 1575 1576 1576 1576 1576 1576 1576 1576 1576 1575 1575 1575 1575 1575 1575 1575 1575 1575 1575
1519 1522 1524 1526 1528 1529 1530 1531 1533 1534 1536 1538 1539 1541 1542 1543 1544 1545 1545 1546 1547 1548 1548 1548 1548 1549 1550 1549 1547 1547 1548 1549 1550 1550 1553 1556 1555 1555 1556 1556 1556 1556 1556 1557 1557 1558 1559 1560 1562 1563 1564 1564 1565 1566 1566 1567 1568 1568 1569 1571 1572 1573 1574 1575 1575 1575 1576 1576 1576 1576 1576 1576 1576 1576 1576 1576 1576 1576 1576 1576 1576 1576 1576 1576 1576
1520 1522 1524 1526 1527 1529 1530 1531 1533 1534 1536 1537 1539 1540 1541 1542 1543 1544 1545 1546 1547 1547 1547 1547 1547 1548 1548 1548 1547 1547 1547 1549 1549 1550 1553 1554 1553 1555 1555 1555 1555 1556 1556 1557 1557 1558 1558 1560 1561 1562 1563 1564 1565 1565 1566 1567 1567 1568 1568 1569 1571 1572 1574 1575 1575 1575 1576 1575 1576 1576 1576 1576 1576 1576 1576 1576 1576 1576 1576 1576 1576 1576 1576 1576 1577
1521 1522 1524 1526 1527 1528 1529 1531 1533 1534 1536 1537 1538 1539 1540 1542 1543 1544 1545 1546 1546 1547 1547 1546 1546 1546 1546 1546 1547 1546 1547 1548 1549 1550 1553 1552 1552 1553 1553 1554 1554 1555 1556 1556 1557 1558 1558 1559 1560 1562 1563 1564 1564 1565 1565 1566 1567 1568 1568 1569 1571 1572 1573 1574 1574 1575 1575 1575 1575 1575 1576 1576 1576 1576 1576 1576 1576 1576 1576 1576 1576 1576 1576 1576 1577
1521 1522 1524 1525 1526 1527 1529 1530 1532 1533 1535 1536 1538 1539 1540 1542 1543 1544 1545 1546 1546 1547 1547 1547 1546 1545 1546 1546 1546 1546 1546 1547 1548 1550 1551 1551 1551 1552 1552 1553 1553 1554 1555 1556 1557 1557 1558 1559 1560 1561 1562 1563 1564 1564 1565 1566 1567 1567 1567 1568 1569 1571 1572 1573 1574 1574 1574 1574 1574 1575 1575 1575 1575 1575 1576 1576 1576 1576 1576 1576 1576 1576 1576 1576 1576
1521 1522 1523 1524 1525 1527 1528 1530 1531 1532 1534 1535 1537 1539 1540 1541 1543 1544 1545 1545 1546 1546 1547 1547 1546 1545 1545 1546 1546 1546 1546 1547 1548 1549 1550 1550 1550 1551 1551 1552 1553 1554 1554 1555 1556 1556 1557 1558 1559 1560 1562 1563 1563 1564 1564 1565 1566 1567 1567 1567 1568 1570 1571 1572 1573 1573 1573 1573 1574 1574 1574 1574 1574 1575 1576 1576 1577 1576 1576 1576 1576 1576 1576 1576 1576
1520 1521 1522 1522 1524 1526 1528 1529 1531 1532 1533 1535 1537 1538 1540 1541 1542 1543 1544 1545 1546 1546 1546 1546 1546 1546 1545 1545 1546 1546 1546 1547 1547 1548 1548 1549 1549 1550 1550 1551 1552 1553 1553 1554 1555 1555 1557 1558 1559 1560 1561 1562 1562 1563 1564 1564 1565 1567 1567 1566 1567 1568 1570 1571 1572 1572 1572 1572 1572 1573 1572 1573 1574 1575 1575 1576 1576 1576 1576 1575 1576 1576 1576 1576 1576
1519 1520 1520 1521 1524 1526 1527 1529 1530 1531 1533 1535 1536 1538 1539 1541 1542 1543 1544 1545 1545 1545 1546 1546 1546 1546 1545 1545 1545 1546 1546 1547 1547 1547 1547 1548 1548 1549 1550 1550 1551 1552 1552 1553 1554 1555 1556 1557 1558 1559 1560 1561 1561 1562 1563 1564 1565 1566 1567 1567 1567 1568 1570 1570 1571 1572 1572 1572 1572 1572 1572 1572 1574 1574 1574 1574 1575 1575 1575 1575 1575 1575 1575 1575 1575
1517 1518 1519 1521 1524 1526 1527 1529 1530 1531 1533 1534 1536 1538 1539 1541 1542 1543 1544 1544 1544 1545 1545 1545 1546 1545 1545 1545 1545 1546 1546 1546 1546 1546 1547 1548 1548 1549 1549 1550 1551 1551 1552 1552 1553 1554 1555 1556 1557 1558 1559 1559 1560 1561 1562 1564 1565 1565 1566 1566 1567 1568 1569 1570 1571 1571 1571 1571 1571 1571 1571 1572 1572 1573 1573 1573 1573 1573 1573 1573 1573 1573 1574 1574 1574
1516 1517 1519 1521 1524 1526 1527 1529 1530 1531 1533 1535 1536 1538 1539 1541 1542 1542 1543 1544 1544 1544 1545 1545 1545 1545 1545 1545 1545 1545 1546 1546 1546 1547 1547 1548 1548 1549 1549 1550 1550 1551 1551 1552 1552 1553 1554 1555 1556 1557 1558 1558 1559 1559 1561 1563 1564 1565 1565 1566 1567 1569 1569 1570 1570 1570 1570 1570 1570 1570 1570 1571 1571 1571 1572 1572 1572 1572 1572 1572 1572 1572 1572 1573 1573
1516 1517 1519 1521 1523 1525 1527 1529 1530 1532 1533 1535 1536 1538 1539 1540 1541 1542 1543 1543 1544 1544 1545 1545 1545 1545 1545 1545 1545 1545 1546 1546 1546 1547 1547 1548 1548 1549 1549 1550 1550 1550 1551 1551 1551 1552 1553 1554 1555 1555 1556 1557 1558 1558 1560 1561 1562 1562 1564 1566 1568 1569 1569 1570 1570 1570 1570 1570 1570 1570 1570 1570 1570 1570 1571 1571 1571 1571 1571 1572 1571 1571 1571 1571 1572
1515 1517 1518 1521 1523 1525 1527 1528 1530 1532 1533 1535 1536 1537 1538 1540 1541 1541 1542 1543 1544 1544 1545 1545 1545 1545 1545 1545 1545 1546 1546 1546 1547 1547 1547 1547 1548 1548 1549 1549 1549 1550 1550 1551 1551 1551 1552 1553 1553 1554 1555 1556 1556 1558 1559 1560 1561 1562 1562 1565 1567 1567 1568 1568 1569 1570 1569 1569 1569 1569 1569 1569 1570 1570 1570 1570 1570 1570 1571 1571 1570 1571 1571 1571 1571
1514 1516 1518 1520 1523 1525 1527 1528 1530 1532 1533 1534 1535 1537 1538 1539 1540 1541 1542 1543 1543 1544 1544 1545 1545 1545 1545 1545 1546 1546 1546 1547 1547 1547 1547 1547 1547 1548 1548 1548 1549 1549 1550 1550 1551 1551 1551 1552 1552 1553 1554 1555 1556 1557 1558 1559 1560 1561 1562 1564 1565 1565 1566 1566 1568 1569 1570 1569 1569 1569 1569 1569 1569 1569 1569 1570 1570 1570 1570 1570 1570 1570 1570 1570 1570
1513 1515 1518 1520 1523 1525 1527 1528 1530 1531 1533 1534 1535 1536 1538 1539 1540 1541 1542 1542 1543 1543 1544 1544 1545 1545 1545 1545 1546 1546 1546 1547 1547 1547 1547 1547 1547 1547 1547 1548 1548 1549 1549 1550 1550 1550 1551 1551 1551 1552 1553 1554 1555 1556 1558 1558 1559 1560 1561 1562 1563 1563 1564 1565 1567 1568 1569 1569 1569 1569 1568 1568 1569 1569 1569 1569 1569 1569 1569 1569 1569 1569 1569 1569 1569
1513 1515 1517 1520 1522 1524 1526 1528 1529 1531 1532 1533 1534 1536 1538 1539 1540 1541 1542 1542 1542 1542 1543 1544 1544 1545 1545 1545 1545 1546 1546 1547 1547 1547 1547 1547 1547 1547 1547 1547 1548 1548 1549 1549 1549 1550 1550 1550 1551 1551 1552 1553 1554 1555 1556 1557 1558 1559 1560 1561 1562 1562 1562 1563 1565 1566 1568 1569 1569 1569 1568 1568 1568 1568 1569 1569 1569 1569 1569 1569 1569 1569 1569 1569 1569
1513 1515 1517 1519 1522 1524 1525 1527 1528 1530 1531 1532 1534 1536 1537 1539 1540 1541 1541 1542 1542 1543 1543 1543 1544 1544 1544 1545 1545 1546 1546 1546 1547 1547 1547 1547 1547 1547 1547 1547 1548 1548 1548 1549 1549 1549 1550 1550 1550 1551 1551 1552 1553 1554 1555 1556 1557 1558 1559 1560 1561 1561 1561 1563 1564 1566 1566 1568 1569 1569 1568 1568 1568 1568 1569 1569 1569 1569 1569 1569 1568 1568 1568 1569 1569
1513 1515 1517 1519 1521 1523 1525 1526 1528 1529 1531 1532 1534 1536 1537 1538 1540 1541 1542 1542 1543 1543 1544 1544 1544 1544 1544 1545 1545 1546 1546 1546 1546 1547 1547 1547 1547 1547 1547 1547 1548 1548 1548 1549 1549 1549 1550 1550 1550 1551 1551 1551 1552 1553 1554 1555 1556 1557 1558 1559 1559 1560 1561 1563 1564 1565 1566 1567 1568 1568 1568 1568 1568 1568 1569 1569 1569 1569 1569 1569 1569 1569 1568 1568 1569
1513 1514 1516 1518 1520 1522 1524 1525 1527 1529 1530 1532 1534 1535 1537 1538 1540 1541 1542 1542 1543 1544 1544 1545 1545 1545 1545 1545 1545 1545 1546 1546 1546 1546 1547 1547 1547 1547 1547 1547 1548 1548 1548 1549 1549 1549 1550 1550 1550 1551 1551 1551 1551 1552 1553 1554 1554 1556 1557 1558 1559 1560 1561 1562 1563 1565 1565 1566 1567 1568 1568 1568 1568 1568 1569 1569 1569 1569 1569 1569 1569 1569 1569 1569 1569
1512 1513 1515 1517 1519 1521 1523 1524 1526 1528 1530 1532 1534 1535 1537 1538 1540 1542 1542 1542 1543 1543 1544 1544 1545 1545 1545 1545 1545 1545 1545 1546 1546 1546 1546 1547 1547 1547 1547 1548 1548 1548 1549 1549 1549 1549 1550 1550 1550 1551 1551 1551 1551 1552 1552 1553 1554 1555 1556 1557 1558 1559 1561 1562 1563 1564 1565 1565 1566 1567 1568 1568 1568 1568 1569 1569 1569 1570 1570 1570 1569 1569 1569 1569 1569